Voltar ao catálogo

CZ-6A DEB

AtivoPO
NORAD 61319·DEBRIS·🇨🇳 China

Lançado Aug 6, 2024 de Taiyuan Satellite Launch Center

Loading…

Próximas Passagens (próximas 24 horas)

TLE

AtualizadoSource: Space-Track

Época: Sep 14, 2026, 11:12 UTC

1 61319U 24140UG  26257.46683759  .00001650  00000-0  52461-3 0  9994
2 61319  89.0237 264.7169 0034532 305.0991  54.6973 14.39201472107117

Acompanhe CZ-6A DEB em tempo real com AllMySat

Download on the App Store